User: anonymous   Login
Location: Caltech
(34.1382°N, 118.1253°W)
Time: 17:40:07
(UTC-07:00)
Language:

Iridium 14 - Orbit

View from above orbital plane
View from above orbital plane
View from above satellite
View from above satellite

Ground track
Ground track

The orbit data is extracted from the following two-line orbital elements,

1 25777U 99032A   17116.87044932 +.00000145 +00000-0 +44587-4 0  9996
2 25777 086.3972 245.3714 0002258 100.9751 259.1699 14.34215791947245
Epoch (UTC): 26 April 2017 20:53:26
Eccentricity: 0.0002258
inclination: 86.3972°
perigee height: 776 km
apogee height: 779 km
right ascension of ascending node: 245.3714°
argument of perigee: 100.9751°
revolutions per day: 14.34215791
mean anomaly at epoch: 259.1699°
orbit number at epoch: 94724

The dashed part of the orbit path shows where the satellite is in the earth's shadow,  

DLR